Latest Weather Observations for Daly Waters

IDD60801

Issued at 6:35 pm CST Friday 24 October 2014 (issued every 30 minutes, with the page automatically refreshed every 10 minutes)

About weather observations | Map of weather stations | Latest weather observations for NT | Other Formats
Station Details ID: 014626 Name: DALY WATERS AIRSTRIP Lat: -16.26 Lon: 133.38 Height: 209.84 m
Data from the previous 72 hours. | See also: Recent months at Daly Waters
Date/Time
CST
Temp
°C
App
Temp
°C
Dew
Point
Rel
Hum
%
Delta-T
°C
Wind Press
QNH
hPa
Press
MSL
hPa
Rain
since 9 am
mm
Dir
 
Spd
km/h
Gust
km/h
Spd
kts
Gust
kts
24/06:30pm 34.6 31.4 3.2 14 16.5 ENE 9 15 5 8 1011.1 1009.6 0.0
24/06:00pm 36.0 32.8 3.3 13 17.3 ESE 9 17 5 9 1010.7 1009.2 0.0
24/05:30pm 36.8 33.2 2.8 12 17.9 ENE 11 22 6 12 1010.4 1008.9 0.0
24/05:00pm 37.4 34.2 3.2 12 18.2 ESE 9 20 5 11 1010.3 1008.8 0.0
24/04:30pm 37.9 35.2 3.6 12 18.4 ENE 7 17 4 9 1010.2 1008.7 0.0
24/04:00pm 37.5 34.3 3.3 12 18.2 NNE 9 15 5 8 1010.4 1008.9 0.0
24/03:30pm 37.1 33.9 3.0 12 18.1 NE 9 15 5 8 1010.6 1009.1 0.0
24/03:00pm 38.4 35.4 4.0 12 18.6 ESE 9 22 5 12 1010.9 1009.4 0.0
24/02:30pm 37.1 33.5 3.0 12 18.1 NNE 11 20 6 11 1011.2 1009.7 0.0
24/02:00pm 37.7 34.4 4.6 13 18.0 ENE 11 24 6 13 1011.6 1010.2 0.0
24/01:30pm 38.0 34.4 4.8 13 18.2 E 13 24 7 13 1012.1 1010.7 0.0
24/01:00pm 37.2 33.3 5.3 14 17.5 ENE 15 32 8 17 1012.8 1011.4 0.0
24/12:30pm 36.1 31.5 5.4 15 16.8 ENE 19 37 10 20 1013.7 1012.2 0.0
24/12:00pm 36.5 32.5 6.6 16 16.7 ENE 17 24 9 13 1014.3 1012.8 0.0
24/11:30am 34.9 31.4 7.1 18 15.5 ENE 15 32 8 17 1014.9 1013.4 0.0
24/11:00am 34.7 32.4 10.5 23 14.2 NE 13 28 7 15 1015.5 1014.0 0.0
24/10:30am 32.8 30.4 11.3 27 12.7 NNE 15 26 8 14 1016.0 1014.6 0.0
24/10:00am 31.8 30.0 12.1 30 11.7 NNE 13 22 7 12 1016.3 1014.9 0.0
24/09:30am 30.9 30.0 13.7 35 10.4 NNE 11 20 6 11 1016.5 1015.1 0.0
24/09:00am 28.6 28.7 15.5 45 8.1 N 9 15 5 8 1016.7 1015.3 0.0
24/08:30am 26.9 28.7 18.7 60 5.3 NNW 7 13 4 7 1016.7 1015.3 0.0
24/08:00am 25.4 27.6 19.3 69 3.9 N 6 11 3 6 1016.7 1015.3 0.0
24/07:30am 23.9 24.7 16.4 63 4.6 WNW 7 11 4 6 1016.5 1015.1 0.0
24/07:00am 20.8 22.2 14.5 67 3.7 CALM 0 0 0 0 1016.0 1014.6 0.0
24/06:30am 18.0 18.6 12.0 68 3.3 CALM 0 0 0 0 1015.8 1014.4 0.0
24/06:00am 17.4 17.7 11.0 66 3.5 SSE 0 0 0 0 1015.4 1013.9 0.0
24/05:30am 17.9 18.4 11.7 67 3.4 CALM 0 0 0 0 1014.9 1013.4 0.0
24/05:00am 18.0 18.3 10.9 63 3.9 CALM 0 0 0 0 1014.6 1013.1 0.0
24/04:30am 18.4 18.6 10.5 60 4.3 CALM 0 0 0 0 1014.6 1013.1 0.0
24/04:00am 19.0 19.1 10.3 57 4.7 CALM 0 0 0 0 1014.4 1012.9 0.0
24/03:30am 19.7 19.9 10.4 55 5.1 CALM 0 0 0 0 1014.2 1012.7 0.0
24/03:00am 20.5 20.4 10.9 54 5.3 NNE 2 4 1 2 1014.1 1012.6 0.0
24/02:30am 20.4 20.3 9.6 50 5.8 CALM 0 0 0 0 1014.2 1012.7 0.0
24/02:00am 21.3 20.6 9.9 48 6.2 NE 4 6 2 3 1014.3 1012.8 0.0
24/01:30am 22.0 20.6 8.9 43 7.0 NE 6 6 3 3 1014.5 1013.0 0.0
24/01:00am 23.7 23.3 8.2 37 8.3 CALM 0 2 0 1 1014.7 1013.2 0.0
24/12:30am 26.3 24.8 8.3 32 9.8 ENE 6 11 3 6 1014.7 1013.2 0.0
24/12:00am 27.7 25.3 8.6 30 10.5 NE 11 17 6 9 1014.8 1013.3 0.0
 
Date/Time
CST
Temp
°C
App
Temp
°C
Dew
Point
Rel
Hum
%
Delta-T
°C
Wind Press
QNH
hPa
Press
MSL
hPa
Rain
since 9 am
mm
Dir
 
Spd
km/h
Gust
km/h
Spd
kts
Gust
kts
23/11:30pm 28.1 26.0 8.4 29 10.8 NE 9 13 5 7 1014.8 1013.3 0.0
23/11:00pm 28.9 26.6 10.6 32 10.5 NE 13 22 7 12 1014.7 1013.2 0.0
23/10:30pm 29.4 27.0 11.5 33 10.4 NE 15 26 8 14 1014.5 1013.0 0.0
23/10:00pm 29.7 28.1 11.7 33 10.5 NE 11 19 6 10 1014.1 1012.6 0.0
23/09:30pm 30.1 28.8 11.1 31 11.0 NNE 9 17 5 9 1013.6 1012.1 0.0
23/09:00pm 26.4 24.4 6.4 28 10.5 ENE 6 9 3 5 1013.1 1011.7 0.0
23/08:30pm 25.9 24.1 5.5 27 10.6 E 4 7 2 4 1012.6 1011.2 0.0
23/08:00pm 28.7 27.7 5.5 23 12.2 CALM 0 2 0 1 1012.1 1010.7 0.0
23/07:30pm 30.8 29.0 5.3 20 13.5 E 4 6 2 3 1011.7 1010.3 0.0
23/07:00pm 32.7 30.5 3.6 16 15.2 E 4 6 2 3 1011.4 1009.9 0.0
23/06:30pm 34.9 32.2 3.5 14 16.6 ESE 7 19 4 10 1011.0 1009.5 0.0
23/06:00pm 36.3 33.8 3.5 13 17.4 ESE 6 15 3 8 1010.6 1009.1 0.0
23/05:30pm 37.0 32.8 4.0 13 17.7 E 15 24 8 13 1010.2 1008.7 0.0
23/05:00pm 37.4 34.1 4.4 13 17.9 E 11 20 6 11 1010.2 1008.7 0.0
23/04:30pm 37.4 34.5 4.4 13 17.9 E 9 19 5 10 1010.1 1008.6 0.0
23/04:00pm 37.8 34.5 4.7 13 18.0 SE 11 20 6 11 1010.3 1008.8 0.0
23/03:30pm 38.1 34.5 4.9 13 18.2 ENE 13 24 7 13 1010.4 1008.9 0.0
23/03:00pm 38.2 35.4 5.0 13 18.2 ESE 9 19 5 10 1010.7 1009.2 0.0
23/02:30pm 37.9 34.2 4.7 13 18.1 E 13 24 7 13 1011.1 1009.6 0.0
23/02:00pm 36.8 33.6 4.9 14 17.4 ENE 11 24 6 13 1011.5 1010.0 0.0
23/01:30pm 37.5 33.1 6.5 15 17.4 NE 19 28 10 15 1012.1 1010.7 0.0
23/01:00pm 36.5 34.0 6.6 16 16.7 E 9 24 5 13 1012.8 1011.4 0.0
23/12:30pm 36.5 33.6 6.6 16 16.7 ESE 11 30 6 16 1013.4 1012.0 0.0
23/12:00pm 35.1 32.0 7.2 18 15.6 ENE 13 30 7 16 1014.1 1012.6 0.0
23/11:30am 35.1 31.6 7.2 18 15.6 E 15 26 8 14 1014.7 1013.2 0.0
23/11:00am 35.2 32.9 10.3 22 14.6 NNE 13 28 7 15 1015.3 1013.8 0.0
23/10:30am 33.7 31.9 10.9 25 13.4 NE 11 22 6 12 1015.8 1014.4 0.0
23/10:00am 32.1 29.5 10.8 27 12.4 NNE 15 26 8 14 1016.3 1014.9 0.0
23/09:30am 31.4 29.3 11.2 29 11.8 NNE 13 24 7 13 1016.5 1015.1 0.0
23/09:00am 29.1 27.7 12.1 35 10.0 N 11 20 6 11 1016.5 1015.1 0.0
23/08:30am 27.1 27.6 15.1 47 7.3 N 6 9 3 5 1016.6 1015.2 0.0
23/08:00am 25.8 27.2 16.4 56 5.8 NNE 4 7 2 4 1016.4 1015.0 0.0
23/07:30am 24.1 25.1 13.3 51 6.3 CALM 0 0 0 0 1016.3 1014.9 0.0
23/07:00am 19.3 19.6 10.8 58 4.7 CALM 0 0 0 0 1015.7 1014.2 0.0
23/06:30am 16.8 16.7 9.5 62 3.8 CALM 0 0 0 0 1015.3 1013.8 0.0
23/06:00am 16.4 16.2 9.1 62 3.8 CALM 0 0 0 0 1015.0 1013.5 0.0
23/05:30am 16.4 16.2 8.9 61 3.9 CALM 0 0 0 0 1014.8 1013.3 0.0
23/05:00am 16.7 16.5 8.9 60 4.1 CALM 0 0 0 0 1014.4 1012.9 0.0
23/04:30am 16.9 16.5 8.3 57 4.4 CALM 0 0 0 0 1014.3 1012.8 0.0
23/04:00am 17.8 17.4 8.4 54 4.9 CALM 0 0 0 0 1014.0 1012.5 0.0
23/03:30am 18.5 18.3 9.0 54 5.0 CALM 0 4 0 2 1013.9 1012.4 0.0
23/03:00am 19.1 17.6 8.4 50 5.6 N 6 6 3 3 1013.6 1012.1 0.0
23/02:30am 19.5 18.9 7.6 46 6.1 CALM 0 2 0 1 1013.9 1012.4 0.0
23/02:00am 20.3 18.5 7.3 43 6.7 ENE 6 7 3 4 1014.0 1012.5 0.0
23/01:30am 22.0 20.6 7.4 39 7.6 NE 4 6 2 3 1014.1 1012.6 0.0
23/01:00am 24.5 23.0 6.7 32 9.3 ENE 4 7 2 4 1014.3 1012.8 0.0
23/12:30am 26.5 24.5 7.0 29 10.4 NNE 7 13 4 7 1014.3 1012.8 0.0
23/12:00am 27.4 25.1 7.3 28 10.8 NNE 9 13 5 7 1014.5 1013.0 0.0
 
Date/Time
CST
Temp
°C
App
Temp
°C
Dew
Point
Rel
Hum
%
Delta-T
°C
Wind Press
QNH
hPa
Press
MSL
hPa
Rain
since 9 am
mm
Dir
 
Spd
km/h
Gust
km/h
Spd
kts
Gust
kts
22/11:30pm 28.1 25.6 8.4 29 10.8 NE 11 19 6 10 1014.6 1013.1 0.0
22/11:00pm 28.6 26.0 9.3 30 10.8 NNE 13 20 7 11 1014.6 1013.1 0.0
22/10:30pm 29.4 26.7 10.5 31 10.8 NNE 15 24 8 13 1014.5 1013.0 0.0
22/10:00pm 30.2 26.6 10.7 30 11.3 NE 20 32 11 17 1014.2 1012.7 0.0
22/09:30pm 30.6 27.6 10.5 29 11.6 NE 17 24 9 13 1013.9 1012.4 0.0
22/09:00pm 30.3 27.5 8.7 26 12.1 NE 13 20 7 11 1013.3 1011.9 0.0
22/08:57pm 30.1 27.4 9.1 27 11.8 NE 13 20 7 11 1013.3 1011.9 0.0
22/08:30pm 25.0 23.3 5.7 29 10.0 NNE 4 4 2 2 1012.8 1011.4 0.0
22/08:00pm 26.2 25.1 5.2 26 10.8 CALM 0 0 0 0 1012.4 1011.0 0.0
22/07:30pm 27.7 26.4 4.1 22 12.0 CALM 0 0 0 0 1012.2 1010.8 0.0
22/07:00pm 31.2 29.0 3.3 17 14.3 ENE 4 4 2 2 1011.8 1010.4 0.0
22/06:30pm 34.5 31.7 3.1 14 16.4 ENE 7 11 4 6 1011.5 1010.0 0.0
22/06:00pm 36.4 33.3 3.6 13 17.5 E 9 15 5 8 1011.1 1009.6 0.0
22/05:30pm 37.4 34.5 4.4 13 17.9 E 9 19 5 10 1010.9 1009.4 0.0
22/05:00pm 37.5 34.3 3.3 12 18.2 NE 9 20 5 11 1010.8 1009.3 0.0
22/04:30pm 38.0 35.9 3.7 12 18.5 E 4 11 2 6 1010.7 1009.2 0.0
22/04:00pm 38.4 34.2 4.0 12 18.6 ENE 15 22 8 12 1010.9 1009.4 0.0
22/03:30pm 38.1 34.7 3.8 12 18.5 E 11 20 6 11 1011.1 1009.6 0.0
22/03:00pm 38.2 35.0 5.0 13 18.2 NE 11 20 6 11 1011.4 1009.9 0.0
22/02:30pm 38.2 35.7 5.0 13 18.2 E 7 17 4 9 1011.7 1010.3 0.0
22/02:00pm 37.3 34.1 5.3 14 17.6 N 11 19 6 10 1012.1 1010.7 0.0
22/01:30pm 36.9 32.4 6.0 15 17.1 NNE 19 30 10 16 1012.7 1011.3 0.0
22/01:00pm 36.7 32.5 5.9 15 17.0 E 17 28 9 15 1013.4 1012.0 0.0
22/12:30pm 36.2 32.7 5.5 15 16.8 E 13 26 7 14 1014.1 1012.6 0.0
22/12:00pm 36.0 33.6 8.7 19 15.7 NNE 11 22 6 12 1014.8 1013.3 0.0
22/11:30am 34.6 32.5 9.8 22 14.4 NE 11 28 6 15 1015.2 1013.7 0.0
22/11:00am 34.1 32.3 10.7 24 13.7 NNE 11 26 6 14 1015.8 1014.4 0.0
22/10:30am 33.7 31.7 11.5 26 13.2 NE 13 22 7 12 1016.3 1014.9 0.0
22/10:00am 32.1 31.3 12.8 30 11.6 N 9 15 5 8 1016.6 1015.2 0.0
22/09:30am 30.7 30.2 13.9 36 10.2 NNE 9 19 5 10 1017.0 1015.6 0.0
22/09:00am 28.5 29.1 16.7 48 7.4 N 9 17 5 9 1017.2 1015.8 0.0
22/08:30am 27.3 28.3 18.6 59 5.6 N 11 15 6 8 1017.0 1015.6 0.0
22/08:00am 25.4 26.6 18.3 65 4.5 N 9 15 5 8 1016.8 1015.4 0.0
22/07:30am 24.1 25.6 16.6 63 4.6 NNE 4 9 2 5 1016.4 1015.0 0.0
22/07:00am 20.0 20.8 12.7 63 4.2 CALM 0 0 0 0 1016.1 1014.7 0.0
22/06:30am 16.9 16.9 9.8 63 3.8 CALM 0 4 0 2 1015.8 1014.4 0.0
22/06:00am 16.8 16.8 9.7 63 3.8 CALM 0 0 0 0 1015.5 1014.0 0.0
22/05:30am 16.8 16.6 9.0 60 4.1 CALM 0 0 0 0 1015.4 1013.9 0.0
22/05:00am 17.1 16.8 8.8 58 4.3 CALM 0 0 0 0 1015.0 1013.5 0.0
22/04:30am 17.2 16.9 8.6 57 4.5 CALM 0 0 0 0 1014.7 1013.2 0.0
22/04:00am 17.5 17.1 8.4 55 4.7 CALM 0 0 0 0 1014.5 1013.0 0.0
22/03:30am 17.8 16.5 7.8 52 5.1 NNE 4 4 2 2 1014.3 1012.8 0.0
22/03:00am 18.0 17.5 8.0 52 5.2 CALM 0 0 0 0 1014.2 1012.7 0.0
22/02:30am 18.4 17.8 7.5 49 5.6 CALM 0 0 0 0 1014.3 1012.8 0.0
22/02:00am 18.8 18.1 6.9 46 6.0 CALM 0 0 0 0 1014.5 1013.0 0.0
22/01:30am 19.6 19.0 7.4 45 6.3 CALM 0 0 0 0 1014.7 1013.2 0.0
22/01:00am 20.0 18.5 6.7 42 6.8 S 4 6 2 3 1015.0 1013.5 0.0
22/12:30am 20.4 18.9 6.7 41 7.0 SSE 4 7 2 4 1015.2 1013.7 0.0
22/12:00am 20.5 18.8 6.1 39 7.3 SE 4 6 2 3 1015.1 1013.6 0.0
 
Date/Time
CST
Temp
°C
App
Temp
°C
Dew
Point
Rel
Hum
%
Delta-T
°C
Wind Press
QNH
hPa
Press
MSL
hPa
Rain
since 9 am
mm
Dir
 
Spd
km/h
Gust
km/h
Spd
kts
Gust
kts
21/11:30pm 20.8 18.7 5.6 37 7.6 ENE 6 7 3 4 1015.1 1013.6 0.0
21/11:00pm 21.3 19.8 4.8 34 8.2 NE 2 6 1 3 1015.1 1013.6 0.0
21/10:30pm 21.7 20.5 4.7 33 8.4 CALM 0 4 0 2 1015.0 1013.5 0.0
21/10:00pm 21.9 19.9 4.5 32 8.6 E 4 6 2 3 1014.9 1013.4 0.0
21/09:30pm 22.1 20.8 4.2 31 8.8 CALM 0 0 0 0 1014.6 1013.1 0.0
21/09:00pm 22.7 21.4 4.2 30 9.1 CALM 0 0 0 0 1014.2 1012.7 0.0
21/08:30pm 23.7 22.2 3.1 26 10.0 CALM 0 0 0 0 1014.0 1012.5 0.0
21/08:00pm 25.4 23.6 3.4 24 10.9 ENE 2 4 1 2 1013.6 1012.1 0.0
21/07:30pm 27.2 24.8 2.3 20 12.3 E 4 7 2 4 1013.2 1011.8 0.0
21/07:00pm 30.3 27.7 0.8 15 14.4 ENE 4 6 2 3 1012.9 1011.5 0.0

Other Formats:

Comma delimited format used in spreadsheet applications
http://www.bom.gov.au/fwo/IDD60801/IDD60801.94234.axf

JavaScript Object Notation format (JSON) in row-major order
http://www.bom.gov.au/fwo/IDD60801/IDD60801.94234.json